(°C)
33°
33°
33°
33°
32°
32°
31°
(°C)
39°
39°
38°
38°
36°
36°
35°
ЮЗ
ЮЗ
ЮЗ
ЗЮЗ
ЗЮЗ
ЗЮЗ
ЗЮЗ
(км/ч)
15-24
17-24
17-25
17-26
17-26
16-25
14-23
(мм)
0
0
0
0
0
0
0
(%)
26
25
25
24
24
24
23

Высота солнцестояния

/ 78.3°
sun-icon
UV 9
06:51
20:21
Убывающая луна (280°)
01:15
14:49

METAR для Тампа (KTPF)

Время Условия Температура/
Точка росы
Ветер Видимость Погода Облачность Давление Изменить Необработанный
VFR 32°C / 26°C 210º 13kt >10km - Broken Clouds 3200ft - KTPF 011655Z AUTO 21013KT 10SM BKN032 BKN039 OVC060 32/26 A3007 RMK AO2
VFR 32°C / 26°C 220º 10kt >10km - Broken Clouds 3200ft - KTPF 011635Z AUTO 22010KT 10SM BKN032 BKN040 BKN046 32/26 A3007 RMK AO2
VFR 32°C / 26°C 220º 11kt >10km - Broken Clouds 3200ft - KTPF 011615Z AUTO 22011KT 10SM BKN032 BKN042 BKN048 32/26 A3007 RMK AO2
MVFR 32°C / 26°C 210º 12kt >10km - Broken Clouds 3000ft - KTPF 011555Z AUTO 21012KT 10SM BKN030 BKN038 BKN050 32/26 A3007 RMK AO2
MVFR 31°C / 25°C 230º variable 205º to 265º 8kt >10km - Broken Clouds 3000ft - KTPF 011535Z AUTO 23008KT 205V265 10SM BKN030 OVC035 31/25 A3007 RMK AO2
VFR 32°C / 25°C 230º 7kt >10km - Scattered Clouds 3000ft - KTPF 011515Z AUTO 23007KT 10SM SCT030 BKN037 OVC055 32/25 A3008 RMK AO2
VFR 32°C / 25°C 220º 7kt >10km - Scattered Clouds 3200ft - KTPF 011455Z AUTO 22007KT 10SM SCT032 BKN042 OVC100 32/25 A3008 RMK AO2
MVFR 31°C / 26°C 210º 8kt >10km - Broken Clouds 2900ft - KTPF 011435Z AUTO 21008KT 10SM BKN029 BKN037 OVC100 31/26 A3007 RMK AO2
VFR 32°C / 26°C 220º 9kt >10km - Scattered Clouds 2400ft - KTPF 011415Z AUTO 22009KT 10SM SCT024 BKN034 OVC100 32/26 A3007 RMK AO2
VFR 31°C / 26°C 200º 5kt >10km - Scattered Clouds 2800ft - KTPF 011355Z AUTO 20005KT 10SM SCT028 BKN049 OVC110 31/26 A3007 RMK AO2
VFR 28°C / 25°C 240º 3kt >10km - Overcast 11000ft - KTPF 010935Z AUTO 24003KT 10SM OVC110 28/25 A3004 RMK AO2
VFR 28°C / 25°C variable 0kt >10km - Overcast 11000ft - KTPF 010915Z AUTO 00000KT 10SM OVC110 28/25 A3003 RMK AO2
VFR 28°C / 25°C variable 0kt >10km - Overcast 11000ft - KTPF 010855Z AUTO 00000KT 10SM OVC110 28/25 A3003 RMK AO2
VFR 28°C / 25°C 240º 3kt >10km - Overcast 11000ft - KTPF 010835Z AUTO 24003KT 10SM OVC110 28/25 A3002 RMK AO2
VFR 28°C / 25°C variable 0kt >10km - Overcast 11000ft - KTPF 010815Z AUTO 00000KT 10SM OVC110 28/25 A3002 RMK AO2
VFR 28°C / 25°C variable 0kt >10km - Overcast 11000ft - KTPF 010755Z AUTO 00000KT 10SM OVC110 28/25 A3002 RMK AO2
VFR 28°C / 25°C 250º 3kt >10km - Overcast 11000ft - KTPF 010735Z AUTO 25003KT 10SM OVC110 28/25 A3003 RMK AO2
VFR 28°C / 25°C 270º 3kt >10km - Broken Clouds 11000ft - KTPF 010715Z AUTO 27003KT 10SM BKN110 28/25 A3003 RMK AO2
VFR 28°C / 25°C 250º 3kt >10km - Overcast 11000ft - KTPF 010655Z AUTO 25003KT 10SM OVC110 28/25 A3004 RMK AO2
VFR 28°C / 25°C variable 0kt >10km - Overcast 11000ft - KTPF 010635Z AUTO 00000KT 10SM OVC110 28/25 A3004 RMK AO2
VFR 28°C / 25°C variable 0kt >10km - Scattered Clouds 2200ft - KTPF 010615Z AUTO 00000KT 10SM SCT022 OVC110 28/25 A3005 RMK AO2
VFR 28°C / 26°C 250º 3kt >10km - Scattered Clouds 2200ft - KTPF 010555Z AUTO 25003KT 10SM SCT022 SCT029 OVC110 28/26 A3006 RMK AO2
MVFR 29°C / 26°C 240º 3kt >10km - Scattered Clouds 2200ft - KTPF 010535Z AUTO 24003KT 10SM SCT022 BKN027 OVC110 29/26 A3006 RMK AO2
VFR 28°C / 25°C 230º 3kt >10km - Scattered Clouds 2200ft - KTPF 010515Z AUTO 23003KT 10SM SCT022 SCT028 OVC100 28/25 A3007 RMK AO2

VFR

32°C / 26°C

[Больше]
Ветер 210º 13kt
Видимость >10km
Погода -
Облачность Broken Clouds 3200ft
Давление
Изменить -
Необработанный KTPF 011655Z AUTO 21013KT 10SM BKN032 BKN039 OVC060 32/26 A3007 RMK AO2

VFR

32°C / 26°C

[Больше]
Ветер 220º 10kt
Видимость >10km
Погода -
Облачность Broken Clouds 3200ft
Давление
Изменить -
Необработанный KTPF 011635Z AUTO 22010KT 10SM BKN032 BKN040 BKN046 32/26 A3007 RMK AO2

VFR

32°C / 26°C

[Больше]
Ветер 220º 11kt
Видимость >10km
Погода -
Облачность Broken Clouds 3200ft
Давление
Изменить -
Необработанный KTPF 011615Z AUTO 22011KT 10SM BKN032 BKN042 BKN048 32/26 A3007 RMK AO2

MVFR

32°C / 26°C

[Больше]
Ветер 210º 12kt
Видимость >10km
Погода -
Облачность Broken Clouds 3000ft
Давление
Изменить -
Необработанный KTPF 011555Z AUTO 21012KT 10SM BKN030 BKN038 BKN050 32/26 A3007 RMK AO2

MVFR

31°C / 25°C

[Больше]
Ветер 230º variable 205º to 265º 8kt
Видимость >10km
Погода -
Облачность Broken Clouds 3000ft
Давление
Изменить -
Необработанный KTPF 011535Z AUTO 23008KT 205V265 10SM BKN030 OVC035 31/25 A3007 RMK AO2

VFR

32°C / 25°C

[Больше]
Ветер 230º 7kt
Видимость >10km
Погода -
Облачность Scattered Clouds 3000ft
Давление
Изменить -
Необработанный KTPF 011515Z AUTO 23007KT 10SM SCT030 BKN037 OVC055 32/25 A3008 RMK AO2

VFR

32°C / 25°C

[Больше]
Ветер 220º 7kt
Видимость >10km
Погода -
Облачность Scattered Clouds 3200ft
Давление
Изменить -
Необработанный KTPF 011455Z AUTO 22007KT 10SM SCT032 BKN042 OVC100 32/25 A3008 RMK AO2

MVFR

31°C / 26°C

[Больше]
Ветер 210º 8kt
Видимость >10km
Погода -
Облачность Broken Clouds 2900ft
Давление
Изменить -
Необработанный KTPF 011435Z AUTO 21008KT 10SM BKN029 BKN037 OVC100 31/26 A3007 RMK AO2

VFR

32°C / 26°C

[Больше]
Ветер 220º 9kt
Видимость >10km
Погода -
Облачность Scattered Clouds 2400ft
Давление
Изменить -
Необработанный KTPF 011415Z AUTO 22009KT 10SM SCT024 BKN034 OVC100 32/26 A3007 RMK AO2

VFR

31°C / 26°C

[Больше]
Ветер 200º 5kt
Видимость >10km
Погода -
Облачность Scattered Clouds 2800ft
Давление
Изменить -
Необработанный KTPF 011355Z AUTO 20005KT 10SM SCT028 BKN049 OVC110 31/26 A3007 RMK AO2

VFR

28°C / 25°C

[Больше]
Ветер 240º 3kt
Видимость >10km
Погода -
Облачность Overcast 11000ft
Давление
Изменить -
Необработанный KTPF 010935Z AUTO 24003KT 10SM OVC110 28/25 A3004 RMK AO2

VFR

28°C / 25°C

[Больше]
Ветер variable 0kt
Видимость >10km
Погода -
Облачность Overcast 11000ft
Давление
Изменить -
Необработанный KTPF 010915Z AUTO 00000KT 10SM OVC110 28/25 A3003 RMK AO2

VFR

28°C / 25°C

[Больше]
Ветер variable 0kt
Видимость >10km
Погода -
Облачность Overcast 11000ft
Давление
Изменить -
Необработанный KTPF 010855Z AUTO 00000KT 10SM OVC110 28/25 A3003 RMK AO2

VFR

28°C / 25°C

[Больше]
Ветер 240º 3kt
Видимость >10km
Погода -
Облачность Overcast 11000ft
Давление
Изменить -
Необработанный KTPF 010835Z AUTO 24003KT 10SM OVC110 28/25 A3002 RMK AO2

VFR

28°C / 25°C

[Больше]
Ветер variable 0kt
Видимость >10km
Погода -
Облачность Overcast 11000ft
Давление
Изменить -
Необработанный KTPF 010815Z AUTO 00000KT 10SM OVC110 28/25 A3002 RMK AO2

VFR

28°C / 25°C

[Больше]
Ветер variable 0kt
Видимость >10km
Погода -
Облачность Overcast 11000ft
Давление
Изменить -
Необработанный KTPF 010755Z AUTO 00000KT 10SM OVC110 28/25 A3002 RMK AO2

VFR

28°C / 25°C

[Больше]
Ветер 250º 3kt
Видимость >10km
Погода -
Облачность Overcast 11000ft
Давление
Изменить -
Необработанный KTPF 010735Z AUTO 25003KT 10SM OVC110 28/25 A3003 RMK AO2

VFR

28°C / 25°C

[Больше]
Ветер 270º 3kt
Видимость >10km
Погода -
Облачность Broken Clouds 11000ft
Давление
Изменить -
Необработанный KTPF 010715Z AUTO 27003KT 10SM BKN110 28/25 A3003 RMK AO2

VFR

28°C / 25°C

[Больше]
Ветер 250º 3kt
Видимость >10km
Погода -
Облачность Overcast 11000ft
Давление
Изменить -
Необработанный KTPF 010655Z AUTO 25003KT 10SM OVC110 28/25 A3004 RMK AO2

VFR

28°C / 25°C

[Больше]
Ветер variable 0kt
Видимость >10km
Погода -
Облачность Overcast 11000ft
Давление
Изменить -
Необработанный KTPF 010635Z AUTO 00000KT 10SM OVC110 28/25 A3004 RMK AO2

VFR

28°C / 25°C

[Больше]
Ветер variable 0kt
Видимость >10km
Погода -
Облачность Scattered Clouds 2200ft
Давление
Изменить -
Необработанный KTPF 010615Z AUTO 00000KT 10SM SCT022 OVC110 28/25 A3005 RMK AO2

VFR

28°C / 26°C

[Больше]
Ветер 250º 3kt
Видимость >10km
Погода -
Облачность Scattered Clouds 2200ft
Давление
Изменить -
Необработанный KTPF 010555Z AUTO 25003KT 10SM SCT022 SCT029 OVC110 28/26 A3006 RMK AO2

MVFR

29°C / 26°C

[Больше]
Ветер 240º 3kt
Видимость >10km
Погода -
Облачность Scattered Clouds 2200ft
Давление
Изменить -
Необработанный KTPF 010535Z AUTO 24003KT 10SM SCT022 BKN027 OVC110 29/26 A3006 RMK AO2

VFR

28°C / 25°C

[Больше]
Ветер 230º 3kt
Видимость >10km
Погода -
Облачность Scattered Clouds 2200ft
Давление
Изменить -
Необработанный KTPF 010515Z AUTO 23003KT 10SM SCT022 SCT028 OVC100 28/25 A3007 RMK AO2

rainNOW: Прогноз дождя для Тампа и окрестностей (радиус 25 км)

0.0 мм
0.0 мм
0.0 мм
0.0 мм
0.1 мм
0.1 мм
0.0 мм
0.0 мм
0.0 мм
0.0 мм
0.0 мм
0.0 мм

Текущие спутниковые изображения для Тампа, США

Указатель местности находится на Тампа. [Больше]

Спутниковое изображение в реальном времени сочетает в себе видимый свет в дневное время с инфракрасным излучением в ночное время. Ночью изображение получается не темным, так как инфракрасное излучение может обнаружить разницу температур. К сожалению, низкие облака и туман трудно отличить от температуры у поверхности земли и поэтому могут быть почти незаметны ночью. Спутниковые снимки Meteosat для Европы обновляются каждые 5 минут в режиме реального времени.Снимки GOES-16/GOES-17 (Северная и Южная Америка) и Химавари (Азия) обновляются каждые 10 минут.

Радарный и сверхкраткосрочный прогноз осадков для Тампа

Морось
Незначительные
Умеренные
Сильные
Очень Сильные
Град

Индикатор местности находится на Тампа. Анимация показывает радар осадков за последний час, а также прогноз погоды для 1h. Умеренная морось или легкий снег могут быть незаметны для радара. Интенсивность осадков маркированна цветной кодировкой, начиная со светло-синего и заканчивая темно-пурпурным.